Location: Newark
(37.9717°N, 99.9089°W)
Time: 19:56:24
(UTC+00:00)

N. Korean satellite - Pass Details

Date: 27 September 2021
Orbit: 450 x 495 km, 97.3° (Epoch: 23 October)

Event Time Altitude Azimuth Distance (km) Brightness Sun altitude
Rises 12:01:16 0° 9° (N) 2,536 10.4 -6.9°
Reaches altitude 10° 12:03:20 10° 7° (N) 1,661 9.4 -6.5°
Maximum altitude 12:06:53 72° 284° (WNW) 513 6.5 -5.8°
Drops below altitude 10° 12:10:28 10° 199° (SSW) 1,671 9.1 -5.1°
Sets 12:12:33 0° 197° (SSW) 2,553 10.0 -4.7°
